Dallas/Ft Worth, TX

8:10 AM CDT on April 26, 2017 (GMT -0500)
Dallas-Fort Worth International

Weather History for KDFW - July, 2013

Change the Weather History Date:

Friday, July 19, 2013

  Actual Average Record
Temperature  
Mean Temperature 85 °F 86 °F  
Max Temperature 95 °F 96 °F 107 °F (1925)
Min Temperature 74 °F 75 °F 68 °F (1990)
Degree Days  
Heating Degree Days 0 0  
Month to date heating degree days 0 0  
Since 1 June heating degree days 0 0  
Since 1 July heating degree days 0 0  
Cooling Degree Days 20 21  
Month to date cooling degree days 353 378  
Year to date cooling degree days 1280 1291  
Since 1 June cooling degree days 891 869  
Growing Degree Days 35 (Base 50)    
Moisture  
Dew Point 70 °F    
Average Humidity 61    
Maximum Humidity 82    
Minimum Humidity 39    
Precipitation  
Precipitation 0.25 in 0.06 in 1.46 in (1917)
Month to date precipitation 1.96 1.51  
Year to date precipitation 17.26 21.55  
Sea Level Pressure  
Sea Level Pressure 29.97 in    
Wind  
Wind Speed 7 mph (SSE)    
Max Wind Speed 24 mph    
Max Gust Speed 30 mph    
Visibility 9 miles    
Events Rain , Thunderstorm    
T = Trace of Precipitation, MM = Missing Value Source: NWS Daily Summary

Daily Weather History Graph

Daily Weather History Graph

Search for Another Location

Airport or City:

Trip Planner

Search our weather history database for the weather conditions in past years. The results will help you decide how hot, cold, wet, or windy it might be!

Date:

Astronomy

Jul. 19, 2013 Rise Set
Actual Time 6:33 AM CDT 8:35 PM CDT
Civil Twilight 6:05 AM CDT 9:03 PM CDT
Nautical Twilight 5:31 AM CDT 9:36 PM CDT
Astronomical Twilight 4:55 AM CDT 10:12 PM CDT
Moon 5:39 PM CDT (7/19) 3:14 AM CDT (7/19)
Length of Visible Light 14h 57m
Length of Day
14h 02m
Waxing Gibbous, 87% of the Moon is Illuminated
Jul 19
Waxing Gibbous
Jul 22
Full
Jul 29
Last Quarter
Aug 6
New
Aug 14
First Quarter

Hourly Weather History & Observations

Time (CDT) Temp. Heat Index Dew Point Humidity Pressure Visibility Wind Dir Wind Speed Gust Speed Precip Events Conditions
12:53 AM 81.0 °F 84.1 °F 69.1 °F 67% 30.01 in 10.0 mi Calm Calm - N/A   Mostly Cloudy
1:53 AM 80.1 °F 82.9 °F 69.1 °F 69% 30.00 in 10.0 mi Calm Calm - N/A   Mostly Cloudy
2:53 AM 77.0 °F - 69.1 °F 76% 29.99 in 10.0 mi Calm Calm - N/A   Scattered Clouds
3:53 AM 77.0 °F - 71.1 °F 82% 29.99 in 10.0 mi SE 5.8 mph - N/A   Scattered Clouds
4:53 AM 75.9 °F - 70.0 °F 82% 30.00 in 10.0 mi SSE 3.5 mph - N/A   Scattered Clouds
5:53 AM 75.9 °F - 70.0 °F 82% 30.00 in 10.0 mi SSW 4.6 mph - N/A   Mostly Cloudy
6:53 AM 75.0 °F - 70.0 °F 84% 30.01 in 10.0 mi ESE 4.6 mph - N/A   Mostly Cloudy
7:53 AM 78.1 °F - 71.1 °F 79% 30.02 in 10.0 mi South 4.6 mph - N/A   Scattered Clouds
8:53 AM 82.0 °F 86.3 °F 71.1 °F 69% 30.03 in 10.0 mi South 4.6 mph - N/A   Scattered Clouds
9:53 AM 86.0 °F 90.1 °F 69.1 °F 57% 30.02 in 10.0 mi WSW 6.9 mph - N/A   Scattered Clouds
10:53 AM 89.1 °F 92.1 °F 66.9 °F 48% 30.01 in 10.0 mi West 11.5 mph - N/A   Scattered Clouds
11:53 AM 91.9 °F 94.5 °F 66.0 °F 42% 30.01 in 10.0 mi West 6.9 mph - N/A   Scattered Clouds
12:53 PM 93.0 °F 95.9 °F 66.0 °F 41% 29.99 in 10.0 mi SSW 5.8 mph - N/A   Scattered Clouds
1:53 PM 93.0 °F 95.0 °F 64.9 °F 39% 29.97 in 10.0 mi Calm Calm - N/A   Mostly Cloudy
2:53 PM 93.0 °F 94.6 °F 64.0 °F 38% 29.95 in 10.0 mi South 10.4 mph 16.1 mph N/A   Mostly Cloudy
3:34 PM 93.0 °F 94.6 °F 64.0 °F 38% 29.96 in 10.0 mi SSE 10.4 mph - N/A Thunderstorm Thunderstorm
3:47 PM 89.6 °F 93.4 °F 68.0 °F 49% 29.97 in 10.0 mi SE 17.3 mph 24.2 mph N/A Thunderstorm Thunderstorm
3:53 PM 89.1 °F 92.9 °F 68.0 °F 50% 29.95 in 10.0 mi ESE 17.3 mph - 0.00 in Rain , Thunderstorm Light Thunderstorms and Rain
4:04 PM 82.0 °F 87.4 °F 73.0 °F 74% 29.98 in 10.0 mi ENE 21.9 mph 29.9 mph 0.00 in Rain , Thunderstorm Light Thunderstorms and Rain
4:25 PM 77.0 °F - 72.0 °F 84% 29.98 in 2.5 mi East 6.9 mph - 0.06 in Rain , Thunderstorm Heavy Thunderstorms and Rain
4:38 PM 78.1 °F - 73.0 °F 84% 29.98 in 3.0 mi East 6.9 mph - 0.24 in Rain , Thunderstorm Thunderstorms and Rain
4:49 PM 78.8 °F - 73.4 °F 83% 29.96 in 6.0 mi East 9.2 mph - 0.25 in Rain Light Rain
4:53 PM 79.0 °F - 73.0 °F 82% 29.93 in 7.0 mi ESE 11.5 mph - 0.25 in Rain Light Rain
5:53 PM 82.9 °F 89.4 °F 73.9 °F 74% 29.91 in 10.0 mi ESE 10.4 mph - 0.00 in   Mostly Cloudy
6:53 PM 84.0 °F 90.2 °F 73.0 °F 69% 29.90 in 10.0 mi ESE 10.4 mph - 0.00 in   Mostly Cloudy
7:53 PM 84.0 °F 90.2 °F 73.0 °F 69% 29.91 in 10.0 mi ESE 8.1 mph - N/A   Mostly Cloudy
8:53 PM 81.0 °F 84.9 °F 71.1 °F 72% 29.91 in 10.0 mi ESE 10.4 mph - N/A   Mostly Cloudy
9:53 PM 80.1 °F 83.2 °F 70.0 °F 71% 29.92 in 10.0 mi SE 10.4 mph - N/A   Partly Cloudy
10:53 PM 79.0 °F - 68.0 °F 69% 29.95 in 10.0 mi SE 8.1 mph - N/A   Partly Cloudy
11:53 PM 77.0 °F - 66.0 °F 69% 29.95 in 10.0 mi South 6.9 mph - N/A   Scattered Clouds